#timestamp,LO_Frequency,Hit,StdDev 
1702026015.8,286046996.8,N
1702026035.7,286046997.8,N
1702026055.5,286046997.6,N
1702026075.3,286046999.2,N
1702026095.2,286046998.1,N
1702026115.0,286046998.8,N
1702026115.9,286046998.8,N
1702026135.7,286046999.0,N
1702026155.6,286046999.7,N
1702026175.4,286047000.6,N
1702026195.3,286046999.9,N
1702026215.1,286046998.5,N
1702026216.0,286046998.5,N
1702026235.8,286046996.9,N
1702026255.7,286046997.0,N
1702026275.5,286046999.4,N
1702026295.3,286046998.9,N
1702026315.2,286047000.6,N
1702026335.0,286047001.0,N
1702026335.9,286047001.0,N
1702026355.8,286047000.5,N
1702026375.6,286047000.9,N
1702026395.4,286046998.8,N
1702026415.3,286046999.6,N
1702026435.1,286046998.3,N
1702026455.8,286046998.4,N
1702026475.7,286047000.2,N
1702026495.5,286046998.6,N
1702026515.4,286046998.1,N
1702026535.2,286046999.8,N
1702026555.0,286046999.8,N
1702026555.9,286046999.8,N
1702026575.8,286046999.7,N
1702026595.6,286047001.2,N
1702026615.4,286047000.8,N
1702026635.3,286046998.4,N
1702026655.1,286047000.0,N
1702026675.9,286047002.5,N
1702026695.7,286047002.3,N
1702026715.5,286047000.5,N
1702026735.4,286047000.7,N
1702026755.2,286047000.0,N
1702026775.0,286047000.6,N
1702026775.9,286047000.6,N
1702026795.8,286047001.8,N
1702026815.6,286047001.9,N
1702026835.5,286047000.5,N
1702026855.3,286047000.3,N
1702026875.1,286047000.3,N
1702026895.9,286046998.1,N
1702026915.7,286047000.6,N
1702026935.6,286046999.9,N
1702026955.4,286047000.5,N
1702026975.2,286046998.1,N
1702026995.1,286047000.9,N
1702026996.0,286047000.9,N
1702027015.8,286047000.1,N
1702027035.7,286047001.6,N
1702027055.5,286046999.8,N
1702027075.3,286047002.5,N
1702027095.2,286046999.7,N
1702027115.0,286047002.3,N
1702027115.9,286047002.3,N
1702027135.7,286047001.0,N
1702027155.6,286047001.2,N
1702027175.4,286047001.2,N
1702027195.3,286046998.2,N
1702027245.1,286046998.7,E
1702027255.0,286047001.2,N
1702027256.0,286047001.2,P
1702027275.8,286047001.0,P
1702027295.6,286046998.1,Y
1702027315.5,286046999.4,P
1702027335.3,286046997.1,P
1702027355.1,286046996.6,N
1702027375.9,286046997.4,N
1702027395.7,286046997.4,N
1702027415.6,286046997.7,N
1702027435.4,286046998.0,N
1702027455.2,286046995.7,Y
1702027475.1,286046997.7,P
1702027476.0,286046997.7,P
1702027495.8,286046997.4,P
1702027515.6,286046998.0,Y
1702027535.5,286046999.0,P
1702027555.3,286046998.8,N
1702027575.2,286046996.7,P
1702027595.9,286046997.2,Y
1702027615.7,286047001.2,P
1702027635.6,286046998.2,N
1702027655.4,286046998.6,N
1702027675.3,286046998.7,N
1702027695.1,286046998.5,N
1702027696.0,286046998.5,N
1702027715.8,286046996.8,Y
1702027735.7,286046996.8,P
1702027755.5,286046997.7,N
1702027775.3,286046995.1,P
1702027795.2,286046998.0,N
1702027815.0,286046996.7,N
1702027815.9,286046996.7,N
1702027835.8,286046997.8,N
1702027855.6,286046995.7,Y
1702027875.4,286046997.0,P
1702027895.3,286046996.7,P
1702027915.1,286046997.0,P
1702027935.9,286046999.3,Y
1702027955.7,286047001.9,P
1702027975.5,286047001.6,N
1702027995.4,286047002.0,N
1702028015.2,286047001.9,N
1702028035.0,286047002.6,N
1702028035.9,286047002.6,N
1702028055.8,286047002.5,N
1702028075.6,286046999.8,N
1702028095.5,286047000.0,N
1702028115.3,286047002.8,N
1702028135.1,286047002.8,N
1702028155.9,286047000.1,N
1702028175.7,286047000.5,N
1702028195.5,286046998.5,N
1702028215.4,286046996.6,N
1702028235.2,286046998.3,N
1702028255.1,286046998.4,N
1702028256.0,286046998.4,N
1702028275.8,286046998.3,N
1702028295.6,286046998.7,N
1702028315.5,286046998.8,N
1702028335.3,286046999.3,N
1702028355.1,286046998.8,N
1702028375.9,286046998.3,N
1702028395.7,286046999.6,N
1702028415.6,286046999.3,N
1702028435.4,286046999.3,N
1702028455.2,286046996.5,N
1702028475.1,286046998.8,N
1702028476.0,286046998.8,N
1702028495.8,286046999.5,N
1702028515.6,286046997.6,N
1702028535.5,286046997.8,N
1702028555.3,286046999.4,N
1702028575.2,286046999.4,N
1702028595.9,286046999.5,N
1702028615.7,286046996.8,N
1702028635.6,286046996.5,N
1702028655.4,286046996.9,N
1702028675.2,286046996.8,N
1702028695.1,286046997.8,N
1702028696.0,286046997.8,N
1702028715.8,286046997.5,N
1702028735.7,286046997.8,N
1702028755.5,286046996.7,Y
1702028775.3,286046996.5,P
1702028795.2,286047001.2,N
1702028815.0,286046999.2,N
1702028815.9,286046999.2,N
1702028835.8,286046996.9,N
1702028855.6,286046996.9,N
1702028875.4,286046996.5,N
1702028895.3,286046994.9,Y
1702028915.1,286046999.0,P
1702028935.8,286046998.5,P
1702028955.7,286046997.7,P
1702028975.5,286046999.5,N
1702028995.4,286046998.6,N
1702029015.2,286046998.9,N
1702029035.0,286046998.8,N
1702029035.9,286046998.8,N
1702029055.8,286046997.2,Y
1702029075.6,286046998.7,P
1702029095.4,286046998.7,P
1702029115.3,286046998.5,P
1702029135.1,286047000.0,N
1702029155.9,286046998.2,Y
1702029175.7,286047000.9,P
1702029195.5,286046999.8,N
1702029215.4,286047000.1,N
1702029235.2,286047000.4,N
1702029255.0,286047002.8,Y
1702029256.0,286047002.8,P
1702029275.8,286047002.7,N
1702029295.6,286047001.0,N
1702029315.5,286047000.2,N
1702029335.3,286047000.3,N
1702029355.1,286047000.2,N
1702029375.9,286047000.5,N
1702029395.7,286046999.7,N
1702029415.5,286046999.9,N
1702029435.4,286047002.8,N
1702029455.2,286047001.5,N
1702029475.1,286047002.7,N
1702029476.0,286047002.7,N
1702029495.8,286046999.9,N
1702029515.6,286046999.8,N
1702029535.5,286046999.8,N
1702029555.3,286047000.1,N
1702029575.2,286047000.2,N
1702029595.9,286047001.0,N
